AO-07 1 07530U 74089B 19254.85239903 -.00000028 00000-0 10645-3 0 9993 2 07530 101.7531 221.6682 0011986 181.0991 232.5536 12.53639859 51199 UO-11 1 14781U 84021B 19254.84473110 .00000065 00000-0 14092-4 0 9996 2 14781 97.6076 275.5179 0009561 47.4754 312.7266 14.83105171911386 LO-19 1 20442U 90005G 19254.85803156 .00000000 00000-0 16390-4 0 9996 2 20442 98.6532 196.7362 0010607 257.8522 102.1473 14.32932402548573 HUBBLE 1 20580U 90037B 19255.10508102 .00000392 00000-0 12891-4 0 9992 2 20580 28.4706 7.1304 0002626 328.9227 33.0182 15.09264553413801 MET-2/21 1 22782U 93055A 19255.71518426 .00000034 00000-0 17853-4 0 9994 2 22782 82.5457 94.8077 0021205 298.7749 110.0468 13.83820217314761 AO-27 1 22825U 93061C 19254.85912104 .00000002 00000-0 18562-4 0 9997 2 22825 98.9097 245.4644 0009447 108.5530 251.6679 14.30066067354122 IO-26 1 22826U 93061D 19254.77099490 .00000001 00000-0 18355-4 0 9992 2 22826 98.9038 245.3550 0010018 98.7839 261.4477 14.30400006354312 FO-29 1 24278U 96046B 19254.88200300 -.00000056 00000-0 -20867-4 0 9990 2 24278 98.5501 36.7753 0350688 19.3176 342.0883 13.53092932139324 NOAA-15 1 25338U 98030A 19255.23393136 .00000032 00000-0 32106-4 0 9994 2 25338 98.7438 276.3321 0010341 0.9372 359.1825 14.25930339109446 GO-32 1 25397U 98043D 19254.79988493 -.00000026 00000-0 78685-5 0 9996 2 25397 98.6927 193.9304 0002044 120.5590 239.5790 14.23670226 99983 ISS 1 25544U 98067A 19256.01324756 .00002742 00000-0 55190-4 0 9990 2 25544 51.6446 285.6588 0008405 34.2020 49.1719 15.50451771188888 NO-44 1 26931U 01043C 19254.86581479 -.00000044 00000-0 14759-4 0 9997 2 26931 67.0511 143.8905 0007461 271.9010 88.1237 14.30551734937158 SO-50 1 27607U 02058C 19254.87466274 -.00000044 00000-0 14776-4 0 9990 2 27607 64.5549 149.1598 0077356 240.0636 119.2769 14.75570227899600 CO-55 1 27844U 03031E 19255.48483190 .00000042 00000-0 38550-4 0 9992 2 27844 98.6853 262.4183 0010579 137.8407 222.3587 14.22193741840481 CO-57 1 27848U 03031J 19254.79768885 .00000035 00000-0 35881-4 0 9992 2 27848 98.6928 262.2594 0010252 150.6607 209.5148 14.21786925840239 RS-22 1 27939U 03042A 19255.79663729 .00000096 00000-0 25747-4 0 9994 2 27939 98.0522 29.9922 0013584 150.2967 209.9014 14.66801555853161 NOAA-18 1 28654U 05018A 19255.20913054 .00000093 00000-0 75331-4 0 9990 2 28654 99.0882 303.4268 0013319 299.0335 60.9501 14.12450894737586 CO-58 1 28895U 05043F 19255.64449460 .00000092 00000-0 26525-4 0 9998 2 28895 97.9714 35.4881 0018164 81.5475 278.7786 14.63689303740065 Falconsat-3 1 30776U 07006E 19255.46736206 .00001833 00000-0 51771-4 0 9992 2 30776 35.4343 263.1407 0002625 187.0845 172.9845 15.36461998693880 CO-65 1 32785U 08021C 19254.86745556 .00000165 00000-0 23373-4 0 9997 2 32785 097.5538 250.5811 0012701 347.6200 012.4704 14.88341794616289 AAUSAT2 1 32788U 08021F 19255.00093176 .00000335 00000-0 35816-4 0 9995 2 32788 97.4965 266.9560 0010095 274.9103 85.0966 14.94791749617660 DO-64 1 32789U 08021G 19254.67374356 .00001180 00000-0 82519-4 0 9991 2 32789 97.4576 301.7473 0012090 187.0392 173.0668 15.07099507619769 CO-66 1 32791U 08021J 19254.87652087 .00000289 00000-0 34677-4 0 9997 2 32791 097.5305 256.6443 0012250 319.8245 040.2068 14.90865199616729 RS-30 1 32953U 08025A 19255.84277031 .00000020 00000-0 75656-4 0 9996 2 32953 82.4983 91.1880 0018898 303.6112 56.3158 12.43091048513015 PRISM 1 33493U 09002B 19255.77192338 -.00000186 00000-0 -10656-4 0 9994 2 33493 98.1202 179.9898 0013776 258.9467 101.0204 14.96725420578022 NOAA-19 1 33591U 09005A 19255.40817302 .00000052 00000-0 53483-4 0 9996 2 33591 99.1857 248.6278 0014657 135.1310 225.1048 14.12375733546009 TISAT-1 1 36799U 10035E 19254.97199912 .00000370 00000-0 43355-4 0 9995 2 36799 98.1667 50.0091 0012720 160.6423 199.5280 14.91151002497471 JUGNU 1 37839U 11058B 19255.14832231 .00000301 00000-0 18681-4 0 9993 2 37839 19.9603 176.5551 0019008 188.7395 308.2566 14.12658104409352 SRMSAT 1 37841U 11058D 19255.16970556 .00000308 00000-0 24254-4 0 9991 2 37841 19.9711 234.9717 0011996 56.4133 34.9260 14.10638591408772 AO-71 1 37854U 11061E 19255.76841990 .00000402 00000-0 28581-4 0 9996 2 37854 101.6989 198.2473 0160336 170.0739 190.3705 15.06561494429958 HRBE 1 37855U 11061F 19254.80062211 .00000472 00000-0 31706-4 0 9992 2 37855 101.7108 194.0836 0173041 184.4202 175.5490 15.05568928429584 ALMASAT-1 1 38078U 12006B 19255.87010618 .00054062 48423-5 27188-3 0 9990 2 38078 69.4234 19.0269 0141575 128.3333 8.7359 15.68526975410976 HORYU-2 1 38340U 12025D 19255.68610374 .00000123 00000-0 25948-4 0 9993 2 38340 98.3224 296.8261 0010990 204.1141 155.9554 14.75746572393843 RS-40 1 38735U 12041C 19255.78105594 .00000027 00000-0 12088-3 0 9996 2 38735 82.4787 174.4222 0018454 47.4725 312.7905 12.42578915323242 BEESAT-3 1 39135U 13015F 19254.88749055 .00000512 00000-0 35057-4 0 9990 2 39135 64.8683 123.8973 0032569 300.9333 58.8592 15.17588756353176 BEESAT-2 1 39136U 13015G 19254.89100005 .00000656 00000-0 42878-4 0 9996 2 39136 64.8684 127.9511 0024299 304.5028 55.3803 15.17006860353092 ZACUBE-1 1 39417U 13066B 19254.82766549 .00000156 00000-0 25813-4 0 9993 2 39417 97.5628 263.5456 0060383 114.2601 246.4937 14.81144928313643 TRITON-1 1 39427U 13066M 19254.86942959 .00000146 00000-0 31561-4 0 9995 2 39427 97.6853 227.0243 0112306 252.6160 106.2739 14.67876003310835 GOMX-1 1 39430U 13066Q 19255.81359959 .00000191 00000-0 43799-4 0 9993 2 39430 97.7533 206.7261 0151191 343.2296 16.3936 14.59282318309166 LO-74 1 39440U 13066AA 19255.71920692 .00000137 00000-0 25905-4 0 9990 2 39440 97.6070 249.0979 0080561 164.4484 195.9229 14.75882922312665 AO-73 1 39444U 13066AE 19255.72636219 .00000189 00000-0 29438-4 0 9996 2 39444 97.5603 266.4217 0059605 105.0362 255.7459 14.81970481312675 SPROUT 1 39770U 14029E 19255.87656448 .00000697 00000-0 83075-4 0 9991 2 39770 97.8864 358.6276 0009017 156.0247 204.1400 14.87416891287646 DUCHIFAT-1 1 40021U 14033M 19255.80104511 .00000376 00000-0 44192-4 0 9990 2 40021 97.9227 180.6786 0014017 122.1223 238.1357 14.90676929284373 NANOSATCBR1 1 40024U 14033Q 19255.73905484 .00000299 00000-0 36982-4 0 9995 2 40024 97.9114 177.8169 0013256 125.6792 234.5661 14.89884525284253 EO-79 1 40025U 14033R 19254.84550024 .00000197 00000-0 26878-4 0 9993 2 40025 97.9030 174.3845 0013360 134.3083 225.9232 14.88978253283999 DTUSAT-2 1 40030U 14033W 19255.73878855 .00000159 00000-0 23066-4 0 9997 2 40030 97.8940 173.2898 0012947 127.4450 232.7946 14.88567353284052 EO-80 1 40032U 14033Y 19255.74763803 .00000153 00000-0 22419-4 0 9991 2 40032 97.8947 173.2996 0012903 128.1583 232.0798 14.88511321284048 ANTELSAT 1 40034U 14033AA 19254.68941381 .00000155 00000-0 30374-4 0 9995 2 40034 97.7491 118.2082 0058499 180.8286 179.2836 14.74130956281197 VELOX-1 1 40057U 14034E 19255.60619534 .00000248 00000-0 42201-4 0 9991 2 40057 98.2447 20.5955 0010185 324.1972 35.8558 14.77704019280454 DAURIA DX 1 1 40071U 14037C 19255.74827906 .00000094 00000-0 19620-4 0 9997 2 40071 98.4372 54.0776 0007611 316.6664 43.3950 14.81289238279999 UKUBE-1 1 40074U 14037F 19255.86389109 .00000258 00000-0 38166-4 0 9999 2 40074 98.4461 62.7598 0003438 317.2269 42.8687 14.84092903280436 HODOYOSHI-1 1 40299U 14070B 19255.83465106 .00000391 00000-0 19312-4 0 9994 2 40299 97.3450 333.7863 0014460 97.8579 43.3720 15.23436736269384 CHUBUSAT-1 1 40300U 14070C 19255.79035978 .00000481 00000-0 23838-4 0 9990 2 40300 97.3211 327.7733 0020870 110.5211 37.1039 15.22162210269116 QSAT-EOS 1 40301U 14070D 19255.80739852 .00001497 00000-0 60258-4 0 9990 2 40301 97.3220 331.2888 0027293 93.8386 25.2659 15.26109596269422 FIREBIRD FU3 1 40377U 15003B 19255.06286905 .00001038 00000-0 44682-4 0 9998 2 40377 99.1190 252.8204 0126793 165.5769 194.9134 15.19003065254880 FIREBIRD FU4 1 40378U 15003C 19255.64246860 .00001083 00000-0 46334-4 0 9995 2 40378 99.1193 253.6005 0127037 163.5352 197.0062 15.19013474254979 GRIFEX 1 40379U 15003D 19255.62439635 .00000669 00000-0 32830-4 0 9993 2 40379 99.1196 247.1143 0134781 183.4794 176.5510 15.15642700254605 NO-84 1 40654U 15025D 19255.22620480 .00006939 00000 0 97827-4 0 7191 2 40654 54.9890 142.2613 0133945 184.4880 175.4963 15.48214200125698 NO-83 1 40655U 15025E 19255.46109074 .00081565 13236-4 26770-3 0 8938 2 40655 54.9641 4.3021 0037538 272.9008 86.7296 15.89459837127316 DEORBITSAIL 1 40719U 15032E 19254.89441555 .00000295 00000-0 49221-4 0 9992 2 40719 97.8973 144.9440 0017482 34.6286 325.6059 14.76787385224838 NUDT-PHONESAT 1 40900U 15049B 19255.71865127 .00001647 00000-0 72934-4 0 9998 2 40900 97.4375 264.2185 0011331 240.2509 208.5607 15.23019043220751 XW-2A 1 40903U 15049E 19255.76770883 .00001601 00000-0 39400-4 0 9991 2 40903 97.3309 298.9924 0012961 187.1333 279.4504 15.42072204223518 XW-2C 1 40906U 15049H 19255.81897409 .00000361 00000-0 22404-4 0 9992 2 40906 97.4703 256.4829 0013177 261.3709 176.6535 15.15743804220043 XW-2D 1 40907U 15049J 19255.78720951 .00000632 00000-0 36383-4 0 9998 2 40907 97.4684 256.1326 0012647 257.1829 188.5427 15.15939372220058 LILACSAT-2 1 40908U 15049K 19255.78711877 .00000399 00000-0 25649-4 0 9999 2 40908 97.4817 254.8715 0014221 265.2670 180.1319 15.13845264219834 XW-2E 1 40909U 15049L 19255.87198159 .00000891 00000-0 47241-4 0 9991 2 40909 97.4612 259.1816 0012002 250.7127 193.9439 15.17895144220269 XW-2F 1 40910U 15049M 19255.73329036 .00000918 00000-0 49211-4 0 9997 2 40910 97.4649 258.2041 0013098 249.5489 197.3471 15.17408283220060 XW-2B 1 40911U 15049N 19255.82243537 .00000350 00000-0 21744-4 0 9990 2 40911 97.4704 256.8299 0012536 259.1405 178.7979 15.15865632219958 DCBB 1 40912U 15049P 19255.88869194 .00000791 00000-0 40189-4 0 9993 2 40912 97.4511 262.1318 0013552 228.5984 175.0855 15.19732325220409 TW-1C 1 40926U 15051B 19255.74113648 .00012255 00000-0 16957-3 0 9995 2 40926 97.1277 301.8455 0009149 60.7949 34.6761 15.57207952223546 TW-1A 1 40928U 15051D 19255.79482968 .00002884 00000-0 71384-4 0 9999 2 40928 97.1403 285.1856 0012308 115.3902 331.9181 15.41162731222439 IO-86 1 40931U 15052B 19255.06119439 .00000595 00000-0 -63348-5 0 9994 2 40931 5.9983 167.8520 0013975 285.1572 74.6833 14.76612832213903 LQSat 1 40958U 15057A 19255.15041300 -.00000005 00000-0 68521-5 0 9993 2 40958 97.8921 322.0085 0017376 331.0621 28.9622 14.73088113211384 AO-85 1 40967U 15058D 19255.50661419 .00000036 00000 0 22808-4 0 8068 2 40967 64.7757 257.7885 0190218 175.0656 185.2399 14.75989539120401 ATHENOXAT-1 1 41168U 15077C 19255.43728433 .00001679 00000-0 53252-4 0 9990 2 41168 14.9886 307.6326 0011488 205.6100 154.3652 15.13753258206993 ChubuSat-2 1 41338U 16012B 19255.59140099 .00000296 00000-0 16272-4 0 9997 2 41338 31.0037 318.8595 0013801 234.4476 125.4873 15.00176955195821 ChubuSat-3 1 41339U 16012C 19255.61741398 .00000273 00000-0 14446-4 0 9996 2 41339 31.0121 316.6770 0013635 242.5156 117.4097 15.00350564195826 Horyu-4 1 41340U 16012D 19255.54019518 .00000421 00000-0 25221-4 0 9990 2 41340 31.0052 307.7477 0013972 261.0495 98.8559 15.01306417195927 OUFTI-1 1 41458U 16025C 19254.84109580 .00000922 00000-0 50384-4 0 9999 2 41458 98.1012 346.0153 0167412 70.9867 290.9412 15.06005235185384 e-st@r-II 1 41459U 16025D 19255.80848031 .00001337 00000-0 71669-4 0 9998 2 41459 98.0993 346.6421 0168204 69.1271 292.7853 15.05631748185501 AAUSAT4 1 41460U 16025E 19255.21065659 .00001779 00000-0 91834-4 0 9998 2 41460 98.0972 347.4767 0158225 63.0694 298.6682 15.07586642185550 LO-87 1 41557U 16033B 19255.80736238 .00000892 00000-0 36009-4 0 9995 2 41557 97.4164 342.8065 0013638 0.8939 359.2322 15.27361482183235 NuSat2 1 41558U 16033C 19255.79991990 .00000970 00000-0 36789-4 0 9994 2 41558 97.4194 344.1260 0012705 1.4809 358.6466 15.29272199183294 Lapan A3 1 41603U 16040E 19255.77737366 .00000040 00000-0 49809-5 0 9992 2 41603 97.3525 312.3290 0014987 96.6003 41.8691 15.19739715178812 Swayam 1 41607U 16040J 19254.72926641 .00001126 00000-0 50033-4 0 9992 2 41607 97.3583 315.1649 0015164 92.5596 267.7377 15.23462857178825 Pratham 1 41783U 16059A 19255.77522853 .00000033 00000-0 15531-4 0 9990 2 41783 98.0597 313.4208 0034869 112.6294 247.8602 14.63008109158138 AlSat 1N 1 41789U 16059G 19255.69041264 .00000056 00000-0 19533-4 0 9990 2 41789 98.0630 315.5218 0029568 102.0692 258.3824 14.64260470158237 ScatSat 1 41790U 16059H 19255.78638853 -.00000021 00000-0 57247-5 0 9996 2 41790 98.2021 298.7612 0006659 61.4162 298.7691 14.50913327156814 TY-1 1 41844U 16066D 19255.82415441 .00000674 00000-0 30408-4 0 9997 2 41844 97.4067 262.1832 0013539 243.3971 199.1652 15.24382229157813 Pegasus-1 1 41846U 16066F 19254.09612894 .00000149 00000-0 33431-4 0 9994 2 41846 98.7047 295.6057 0367115 347.6589 11.5784 14.37611253148685 CAS-2T 1 41847U 16066G 19254.77653408 .00000017 00000-0 13527-4 0 9994 2 41847 98.6986 296.8241 0365532 341.9735 16.8764 14.38003842149223 EO-88 1 42017U 17008BX 19255.16122486 .00001077 00000-0 45100-4 0 9991 2 42017 97.3965 321.3511 0005153 215.0554 145.0346 15.25697487142955 nSIGHT1 1 42726U 98067MF 19255.55400590 .00021492 00000-0 14873-3 0 9995 2 42726 51.6347 228.6027 0004989 125.7334 234.4130 15.74443893131337 CAS-4B 1 42759U 17034B 19255.81184933 .00000190 00000-0 25166-4 0 9995 2 42759 43.0179 117.7716 0010372 69.4615 345.6780 15.09629661123854 CAS-4A 1 42761U 17034D 19255.83737858 .00000086 00000-0 18763-4 0 9999 2 42761 43.0184 117.1139 0010580 71.5310 347.1192 15.09706229123853 UCLSat 1 42765U 17036A 19255.15804656 .00000829 00000-0 38305-4 0 9990 2 42765 97.3434 311.3104 0009826 292.6850 67.3347 15.22875426123475 NIUSat 1 42766U 17036B 19255.08631229 .00000657 00000-0 32476-4 0 9999 2 42766 97.3430 309.4500 0013946 282.3144 77.6530 15.21215920123216 LituanicaSAT 2 1 42768U 17036D 19255.13171209 .00001432 00000-0 63743-4 0 9997 2 42768 97.3473 310.9388 0013313 280.7412 79.2325 15.23019219123310 Aalto 1 1 42775U 17036L 19255.10039616 .00000528 00000-0 26512-4 0 9995 2 42775 97.3416 309.8024 0012285 282.2036 77.7824 15.21427167123191 URSA MAIOR 1 42776U 17036M 19254.72472225 .00000595 00000-0 29403-4 0 9996 2 42776 097.3428 309.6118 0012115 283.6384 076.3503 15.21567407123146 Max Valier Sat 1 42778U 17036P 19255.12525924 .00000640 00000-0 30891-4 0 9992 2 42778 97.3469 310.8777 0010653 286.5440 73.4626 15.22123901123230 Pegasus 1 42784U 17036V 19254.73657580 .00000800 00000-0 37345-4 0 9998 2 42784 97.3439 310.6911 0010419 294.9915 65.0240 15.22618271123207 NUDATSat 1 42787U 17036Y 19255.20478001 .00001659 00000-0 72098-4 0 9990 2 42787 97.3463 311.9713 0010272 294.2192 65.7969 15.23645761123163 SUCHAI 1 1 42788U 17036Z 19255.11419931 .00000957 00000-0 43540-4 0 9998 2 42788 97.3443 311.4182 0009948 292.2845 67.7336 15.23056609123356 SKCUBE 1 42789U 17036AA 19254.74156482 .00000890 00000-0 40838-4 0 9999 2 42789 097.3440 310.9795 0009843 294.0774 065.9433 15.22946366123213 VZLUSAT 1 1 42790U 17036AB 19254.73209796 .00001170 00000-0 51718-4 0 9998 2 42790 097.3456 311.5098 0009357 292.7999 067.2249 15.23634685123241 VENTA 1 1 42791U 17036AC 19254.71501869 .00000905 00000-0 41458-4 0 9998 2 42791 097.3438 311.0044 0009495 295.0148 065.0102 15.22956008123208 Robusta 1B 1 42792U 17036AD 19255.12287769 .00000932 00000-0 42401-4 0 9994 2 42792 97.3440 311.5219 0009406 293.4329 66.5918 15.23121062123291 D-SAT 1 42794U 17036AF 19255.76988338 -.00000026 00000-0 32825-5 0 9991 2 42794 97.5322 296.6519 0125652 214.1218 145.1878 14.91130203121163 TechnoSat 1 42829U 17042E 19255.71578189 .00000204 00000-0 25974-4 0 9994 2 42829 97.5520 144.9693 0015317 129.5872 230.6702 14.90996500117756 TOMSK-TPU 120 1 42910U 98067MZ 19255.82033887 .00133910 18292-4 32532-3 0 9998 2 42910 51.6311 197.2377 0005433 130.9851 320.8978 15.96005654118720 TANYUSHA 2 1 42912U 98067NB 19248.70315973 .02500102 12117-4 52303-3 0 9999 2 42912 51.6267 222.5515 0001059 185.4160 169.3834 16.30208236117744 TNS 0-2 1 42914U 98067ND 19255.28336236 .00141836 19372-4 31192-3 0 9993 2 42914 51.6288 199.9533 0004615 127.0265 233.1167 15.97793800118631 QIKCOM-1 1 42983U 98067NF 19255.59599048 .00002560 00000-0 38285-4 0 9990 2 42983 51.6386 268.8219 0004707 86.2342 273.9189 15.59300925106742 AO-91 1 43017U 17073E 19255.74626296 .00000213 00000-0 22671-4 0 9995 2 43017 97.7200 173.7381 0256665 238.0517 119.5508 14.78624532 97971 EcAMSat 1 43019U 98067NG 19255.48904554 .00004662 00000-0 58255-4 0 9995 2 43019 51.6391 262.9080 0005261 70.2136 289.9424 15.62023485189130 PICSAT 1 43132U 18004X 19254.75199020 .00000953 00000-0 42668-4 0 9997 2 43132 97.4821 322.3804 0008590 324.2914 35.7748 15.23718132 92452 AO-92 1 43137U 18004AC 19254.75041056 .00000732 00000-0 33602-4 0 9990 2 43137 97.4811 322.3371 0008237 326.9226 33.1495 15.23577172 92445 TianYi 2 1 43155U 18008A 19255.82802788 .00000430 00000-0 29306-4 0 9991 2 43155 97.4809 326.5353 0018692 32.3190 77.5258 15.11226729 90838 Zhou Enlai 1 43156U 18008B 19255.77778604 .00000254 00000-0 19087-4 0 9994 2 43156 97.4852 326.3694 0015714 31.6573 116.2114 15.10734938 90794 TianYi 6 1 43158U 18008D 19255.77394804 .00000111 00000-0 10627-4 0 9995 2 43158 97.4805 325.7578 0014811 28.3315 86.1867 15.10316808 90750 S-Net G 1 43186U 18014G 19255.73735437 -.00000022 00000-0 31758-5 0 9991 2 43186 97.7018 162.9131 0012360 78.9676 281.2935 14.96671252 88003 S-Net H 1 43187U 18014H 19254.80118320 -.00000119 00000-0 -53166-5 0 9990 2 43187 97.7017 161.9774 0012351 81.4997 278.7624 14.96671385 87866 S-Net J 1 43188U 18014J 19255.73698924 -.00000032 00000-0 22302-5 0 9998 2 43188 97.7018 162.9185 0012354 78.9807 281.2803 14.96671067 88001 S-Net K 1 43189U 18014K 19255.73733160 -.00000023 00000-0 30710-5 0 9993 2 43189 97.7016 162.8961 0012347 78.8978 281.3631 14.96670777 86556 FMN 1 1 43192U 18015A 19255.87260553 .00001651 00000-0 69885-4 0 9995 2 43192 97.4093 22.5903 0016096 356.5656 122.6369 15.24494353 89446 Shaonian Xing 1 43199U 18015H 19255.78763443 .00001199 00000-0 50834-4 0 9999 2 43199 97.3879 21.4496 0017312 7.2334 96.6982 15.24950411 89481 1KUNS-PF 1 43466U 98067NP 19255.47450650 .00018293 00000-0 16012-3 0 9992 2 43466 51.6346 258.1914 0002070 67.2784 292.8431 15.68959807 76373 UBAKUSAT 1 43467U 98067NQ 19255.44200695 .00009863 00000-0 10628-3 0 9992 2 43467 51.6353 264.7388 0003131 45.0364 315.0884 15.64403679 76295 Irazu 1 43468U 98067NR 19255.46945527 .00012958 00000-0 96850-4 0 9996 2 43468 51.6329 252.8538 0002363 68.4257 291.6993 15.73102187176437 EnduroSat One 1 43551U 98067NZ 19255.06403421 .00012948 00000-0 13499-3 0 9993 2 43551 51.6356 268.9651 0006071 99.0165 261.1517 15.64904807 66433 EQUISat 1 43552U 98067PA 19255.50383690 .00009906 00000-0 11135-3 0 9993 2 43552 51.6369 268.9361 0006424 101.0077 259.1640 15.63298356 66432 UiTMSat 1 1 43589U 98067PD 19255.04897587 .00011825 00000-0 13024-3 0 9999 2 43589 51.6344 271.8241 0005689 104.6354 255.5272 15.63602044 62096 Maya 1 1 43590U 98067PE 19255.29872447 .00011052 00000-0 12200-3 0 9993 2 43590 51.6347 270.4973 0005791 107.0542 253.1088 15.63625067 62064 Bhutan 1 1 43591U 98067PF 19254.45539576 .00010095 00000-0 11179-3 0 9994 2 43591 51.6355 274.6453 0005888 104.1623 256.0027 15.63662342 61935 SiriusSat 1 1 43595U 98067PG 19255.06367059 .00011423 00000-0 13028-3 0 9992 2 43595 51.6346 273.4290 0004308 67.6116 292.5334 15.62745258 61181 SiriusSat 2 1 43596U 98067PH 19255.61450139 .00009553 00000-0 11058-3 0 9998 2 43596 51.6356 271.1513 0004790 70.7484 289.4028 15.62592239 61267 Tanusha-3 1 43597U 98067PJ 19255.57992421 .00014290 00000-0 14992-3 0 9993 2 43597 51.6338 268.5930 0004342 80.2894 279.8591 15.64648096 61291 SurfSat 1 43614U 18070B 19254.85143699 .00002045 00000-0 55115-4 0 9992 2 43614 093.0290 038.8110 0014957 347.4305 012.6573 15.37820078055494 CP-7 DAVE 1 43615U 18070C 19254.86193774 .00001984 00000-0 53632-4 0 9996 2 43615 93.0294 38.8148 0015136 346.5447 13.5401 15.37727326 55499 ELFIN-B 1 43616U 18070D 19254.83251432 .00002948 00000-0 77660-4 0 9998 2 43616 93.0256 38.7106 0015968 349.7214 10.3710 15.38473947 55509 ELFIN-A 1 43617U 18070E 19254.88876260 .00003025 00000-0 79573-4 0 9998 2 43617 93.0310 39.0152 0015018 346.6680 13.4174 15.38533131 55516 STARS-Me Mother 1 43640U 98067PQ 19255.51276590 .00005799 00000-0 77707-4 0 9996 2 43640 51.6359 276.4643 0006041 59.5557 300.6032 15.59600308 53118 CubeBel 1 1 43666U 18083E 19255.80057255 .00000877 00000-0 46826-4 0 9991 2 43666 97.5167 279.6793 0013579 248.2401 227.8409 15.17706690 48344 Changshagaoxin 1 43669U 18083H 19255.74091784 .00000504 00000-0 29015-4 0 9990 2 43669 97.5031 278.6655 0009510 237.5387 122.4927 15.16879012 48272 Ten-Koh 1 43677U 18084G 19254.83245645 -.00000002 00000-0 56294-5 0 9990 2 43677 97.8593 8.0456 0016114 6.6054 353.5373 14.90190334 47292 PO-101 1 43678U 18084H 19255.81016706 -.00000005 00000-0 51542-5 0 9998 2 43678 97.8582 9.7242 0010641 25.5215 334.6544 14.91568273 47483 IRVINE 01 1 43693U 18088D 19255.04864596 .00001699 00000-0 73252-4 0 9992 2 43693 85.0323 261.7343 0016250 234.9224 125.0495 15.21635603 46349 QO-100 1 43700U 18090A 19254.86160598 .00000125 00000-0 00000 0 0 9993 2 43700 0.0244 170.2730 0001816 15.4482 140.8407 1.00271713 3140 Reaktor Hello World 1 43743U 18096AA 19255.77175894 .00001000 00000-0 40690-4 0 9999 2 43743 97.4539 325.6544 0019240 36.2491 111.9095 15.26754610 43864 MinXSS-2 1 43758U 18099A 19254.79858940 .00000282 00000-0 30654-4 0 9999 2 43758 97.7392 325.8225 0016575 47.6290 312.6331 14.95453077 42151 AO-95 1 43770U 18099N 19255.78859515 -.00000046 00000-0 10237-5 0 9997 2 43770 97.7394 326.5325 0015683 50.9448 309.3165 14.94805630 42284 RANGE-B 1 43772U 18099Q 19255.16873688 .00000148 00000-0 18789-4 0 9999 2 43772 97.7452 326.1454 0015148 41.3473 318.8891 14.94927332 42182 RANGE-A 1 43773U 18099R 19255.77952429 -.00000235 00000-0 -16301-4 0 9995 2 43773 97.7341 326.3604 0014472 39.3572 320.8697 14.94832029 42270 MOVE-II 1 43780U 18099Y 19255.73835849 .00000598 00000-0 59693-4 0 9996 2 43780 97.7385 326.5484 0014569 50.1521 310.0979 14.95117716 42269 SNUSat 2 1 43782U 18099AA 19255.73398941 .00000304 00000-0 32921-4 0 9995 2 43782 97.7388 326.5886 0013603 40.1225 320.0998 14.95085658 42270 SnugLite 1 43784U 18099AC 19255.78624597 -.00000104 00000-0 -42204-5 0 9997 2 43784 97.7355 326.5478 0016103 46.2258 314.0292 14.95171464 42297 ITASat 1 1 43786U 18099AE 19255.78414743 -.00000209 00000-0 -13751-4 0 9999 2 43786 97.7408 326.7449 0016198 45.2095 315.0440 14.95171215 42290 EAGLET 1 1 43790U 18099AJ 19255.77953096 -.00000252 00000-0 -17485-4 0 9998 2 43790 97.7399 326.8713 0014565 50.0427 310.2071 14.95544313 41994 ESEO 1 43792U 18099AL 19254.84103964 -.00000324 00000-0 -23959-4 0 9991 2 43792 97.7379 325.8809 0014486 50.2096 310.0398 14.95526258 41915 CSIM 1 43793U 18099AM 19254.88282440 .00000827 00000-0 79229-4 0 9990 2 43793 97.7348 325.8182 0014075 49.6395 310.6053 14.95758763 41893 Astrocast 0.1 1 43798U 18099AS 19255.73632132 .00000249 00000-0 27545-4 0 9999 2 43798 97.7383 326.8789 0013078 32.6674 327.5353 14.95752373 42280 JO-97 1 43803U 18099AX 19255.76119836 .00000336 00000-0 35659-4 0 9992 2 43803 97.7369 326.6180 0016305 46.3690 313.8879 14.95312505 42280 Suomi 100 1 43804U 18099AY 19254.75701817 .00000468 00000-0 47663-4 0 9991 2 43804 97.7368 325.6238 0016428 49.6889 310.5764 14.95309595 42142 Al Farabi 2 1 43805U 18099AZ 19255.75266636 .00000648 00000-0 63829-4 0 9990 2 43805 97.7370 326.6306 0016360 46.8287 313.4297 14.95376661 42296 PWSat 2 1 43814U 18099BJ 19255.78523781 .00013075 00000-0 10134-2 0 9997 2 43814 97.7735 328.7045 0011346 83.9400 276.3092 15.01488330 41768 CHOMPTT 1 43855U 18104G 19255.73647247 .00001023 00000-0 42227-4 0 9998 2 43855 85.0391 359.5485 0018290 6.4125 353.7347 15.22489344 41111 ISAT 1 43879U 18111D 19255.80824240 .00000235 00000-0 26012-4 0 9998 2 43879 97.7103 162.5424 0014675 95.5719 264.7176 14.96028550 36825 UWE-4 1 43880U 18111E 19255.69918715 .00000678 00000-0 65022-4 0 9993 2 43880 97.7119 162.5639 0014073 96.2993 263.9832 14.96273878 36810 Sparrow 1 43881U 18111F 19254.75501865 .00000671 00000-0 64330-4 0 9998 2 43881 97.7121 161.6651 0014093 98.4296 261.8523 14.96318109 36675 Lume 1 1 43908U 18111AJ 19255.72611209 .00000838 00000-0 36777-4 0 9999 2 43908 97.2816 158.6042 0023019 50.6682 309.6591 15.24454947 39557 FO-98 1 43933U 19003B 19255.70229075 .00000560 00000-0 27615-4 0 9995 2 43933 97.2745 310.4596 0019111 138.6695 339.1446 15.21718873 36133 FO-99 1 43937U 19003F 19255.73109459 .00001140 00000-0 49933-4 0 9997 2 43937 97.2687 311.0010 0025670 126.5146 329.2045 15.23716137 36187 Delphini 1 1 44030U 98067PW 19255.53824890 .00007859 00000-0 10974-3 0 9995 2 44030 51.6365 281.1436 0005083 98.7797 261.3771 15.57896400 34927 MYSat 1 1 44045U 18092F 19255.19852379 .00001240 00000-0 46811-4 0 9994 2 44045 51.6461 316.7339 0012278 38.2910 321.8856 15.35223185 32370 AstroCast 0.2 1 44083U 19018F 19255.70311236 .00000385 00000-0 20235-4 0 9995 2 44083 97.4611 314.9757 0015565 70.4998 289.7917 15.21442220 24994 AISTechSat 3 1 44103U 19018AB 19255.72214598 .00000721 00000-0 33865-4 0 9990 2 44103 97.4492 315.0222 0015253 86.4930 31.9539 15.22724939 25012 AISat 1 1 44104U 19018AC 19255.70927049 .00000770 00000-0 27348-4 0 9994 2 44104 97.5019 318.0995 0060425 121.1567 239.5618 15.30571653 25165 Raavana-1 1 44329U 98067QE 19254.81746797 .00004981 00000-0 86173-4 0 9993 2 44329 51.6403 290.5959 0007857 41.4375 318.7210 15.52865600 13489 Uguisu 1 44330U 98067QF 19255.14136832 .00004888 00000-0 84807-4 0 9993 2 44330 51.6402 289.0087 0007857 41.3323 318.8260 15.52829327 13513 NepaliSat-1 1 44331U 98067QG 19255.13728660 .00004916 00000-0 85029-4 0 9998 2 44331 51.6402 288.9822 0007880 43.9386 316.2230 15.52904123 13520 Prox-1 1 44339U 19036A 19252.85315730 .00000152 00000-0 -14003-4 0 9994 2 44339 23.9999 83.2756 0010623 311.7117 48.2486 14.52655217 11136 OBJECT H 1 44346U 19036H 19255.49512009 .00014980 00000-0 23547-3 0 9998 2 44346 28.5244 46.3251 0388169 222.8674 134.1062 14.97193797 11876 OBJECT J 1 44347U 19036J 19255.48676098 .00037030 00000-0 57334-3 0 9999 2 44347 28.5312 45.3423 0376296 224.3109 132.6638 15.00226338 11887 OBJECT K 1 44348U 19036K 19255.73679421 .00009876 00000-0 15043-3 0 9999 2 44348 28.5204 44.3543 0388248 225.6498 131.1469 14.97536457 11916 Armadillo 1 44352U 19036P 19254.45539870 .00017329 00000-0 27312-3 0 9999 2 44352 28.5333 52.5622 0383793 212.3089 145.3600 14.98098983 11666 NO-104 1 44354U 19036R 19254.49937062 .00009102 00000-0 13822-3 0 9991 2 44354 28.5339 51.9008 0384656 212.9453 144.6606 14.98259058 11711 NO-103 1 44355U 19036S 19255.48135793 .00016380 00000-0 25225-3 0 9999 2 44355 28.5348 45.2578 0380579 223.7920 133.1887 14.99204107 11865 Oculus-ASR 1 44356U 19036T 19255.72542328 .00047147 00000-0 66422-3 0 9992 2 44356 28.5271 42.3503 0374515 228.3737 128.3971 15.02615968 11920 CP9 1 44360U 19036X 19255.47074843 .00030452 00000-0 41564-3 0 9992 2 44360 28.5192 44.0734 0383809 225.8245 131.0174 15.01310708 11754 Move-IIb 1 44398U 19038N 19254.87990066 .00000952 00000-0 59343-4 0 9999 2 44398 97.4958 215.4967 0026138 14.2199 345.9761 15.11673793 10337 SONATE 1 44400U 19038Q 19255.07702480 .00000804 00000-0 50718-4 0 9990 2 44400 97.4966 215.6959 0025625 11.5806 348.6125 15.11671678 10365 BeeSat 9 1 44412U 19038AC 19254.87239968 .00000643 00000-0 41239-4 0 9995 2 44412 97.4969 215.5078 0023631 18.4785 341.7298 15.11819081 10029 JAISAT-1 1 44419U 19038F 19255.11463532 .00000731 00000-0 45726-4 0 9999 2 44419 97.4971 215.7984 0022473 17.9141 342.2877 15.12312504 10376 LightSail-2 1 44420U 19036AC 19254.50192775 .00006952 00000-0 15991-2 0 9999 2 44420 024.0051 072.9354 0024125 306.1693 053.6605 14.52932824009521 /EX
